Terminal Aerodrome Forecast
Issued by NWS

Home | Current Version | Previous Version | Text Only | Print | Product List | Glossary On
Versions: 1 2 3 4 5 6 7 8 9 10 11 12 13 14 15 16 17 18 19 20 21 22 23 24 25 26 27 28 29 30 31 32 33 34 35 36 37
000
FTUS46 KEKA 250814 AAA
TAFACV
TAF AMD
KACV 250814Z 2508/2606 15015G23KT P6SM OVC050 WS010/17035KT
     FM250930 15020G35KT 4SM -RA BR BKN025 OVC035 WS010/17040KT
     FM251600 16020G29KT 6SM -TSRA SCT025 OVC030CB
     FM252000 17015KT P6SM -SHRA OVC025 PROB30 2520/2523 P6SM -TSRA
      BKN025CB
     FM260300 17007KT 3SM -SHRA BR SCT007 OVC025=

USA.gov is the U.S. government's official web portal to all federal, state and local government web resources and services.